SCP
0 0 0 0 0 0 0 0 0 0 0 0 0 0 0 0 0 0 0 0 0 0 0 0 0 0 0 0 0 0 0 0 0 0 0 0 0 0
0 0 0 0 0 0 0 0 0 0 0 0 0 0 0 0 0 0 0 0 0 0 0 0 0 0 0 0 0 0 0 0 0 0 0 0 0 0
0 0 0 0 0 0 0 0 0 0 0 0 0 0 0 0 0 0 0 0 0 0 0 0 0 0 0 0 0 0 0 0 0 0 0 0 0 0
0 0 0 0 0 0 0 0 0 0 0 0 0 0 0 0 0 0 0 0 0 0 0 0 0 0 0 0 0 0 0 0 0 0 0 0 0 0
0 0 0 0 0 0 0 0 0 0 0 0 0 0 0 0 0 0 0 0 0 0 0 0 0 0 0 0 0 0 0 0 0 0 0 0 0 0
0 0 0 0 0 0 0 0 0 0 0 0 0 0 0 0 0 0 0 0 0 0 0 0 0 0 0 0 0 0 0 0 0 0 0 0 0 0
0 0 0 0 0 0 0 0 0 0 0 0 0 0 0 0 0 0 0 0 0 0 0 0 0 0 0 0 0 0 0 0 0 0 0 0 0 0
0 0 0 0 0 0 0 0 0 0 0 0 0 0 0 0 0 0 0 0 0 0 0 0 0 0 0 0 0 0 0 0 0 0 0 0 0 0
0 0 0 0 0 0 0 0 0 0 0 0 0 0 0 0 0 0 0 0 0 0 0 0 0 0 0 0 0 0 0 0 0 0 0 0 0 0
0 0 0 0 0 0 0 0 0 0 0 0 0 0 0 0 0 0 0 0 0 0 0 0 0 0 0 0 0 0 0 0 0 0 0 0 0 0
0 0 0 0 0 0 0 0 0 0 0 0 0 0 0 0 0 0 0 0 0 0 0 0 0 0 0 0 0 0 0 0 0 0 0 0 0 0
0 0 0 0 0 0 0 0 0 0 0 0 0 0 0 0 0 0 0 0 0 0 0 0 0 0 0 0 0 0 0 0 0 0 0 0 0 0
0 0 0 0 0 0 0 0 0 0 0 0 0 0 0 0 0 0 0 0 0 0 0 0 0 0 0 0 0 0 0 0 0 0 0 0 0 0
0 0 0 0 0 0 0 0 0 0 0 0 0 0 0 0 0 0 0 0 0 0 0 0 0 0 0 0 0 0 0 0 0 0 0 0 0 0
0 0 0 0 0 0 0 0 0 0 0 0 0 0 0 0 0 0 0 0 0 0 0 0 0 0 0 0 0 0 0 0 0 0 0 0 0 0
0 0 0 0 0 0 0 0 0 0 0 0 0 0 0 0 0 0 0 0 0 0 0 0 0 0 0 0 0 0 0 0 0 0 0 0 0 0
0 0 0 0 0 0 0 0 0 0 0 0 0 0 0 0 0 0 0 0 0 0 0 0 0 0 0 0 0 0 0 0 0 0 0 0 0 0
0 0 0 0 0 0 0 0 0 0 0 0 0 0 0 0 0 0 0 0 0 0 0 0 0 0 0 0 0 0 0 0 0 0 0 0 0 0
0 0 0 0 0 0 0 0 0 0 0 0 0 0 0 0 0 0 0 0 0 0 0 0 0 0 0 0 0 0 0 0 0 0 0 0 0 0
0 0 0 0 0 0 0 0 0 0 0 0 0 0 0 0 0 0 0 0 0 0 0 0 0 0 0 0 0 0 0 0 0 0 0 0 0 0
0 0 0 0 0 0 0 0 0 0 0 0 0 0 0 0 0 0 0 0 0 0 0 0 0 0 0 0 0 0 0 0 0 0 0 0 0 0
0 0 0 0 0 0 0 0 0 0 0 0 0 0 0 0 0 0 0 0 0 0 0 0 0 0 0 0 0 0 0 0 0 0 0 0 0 0
0 0 0 0 0 0 0 0 0 0 0 0 0 0 0 0 0 0 0 0 0 0 0 0 0 0 0 0 0 0 0 0 0 0 0 0 0 0
Wind_Speed
2 2 2 2 1 2 2 3 3 2 1 1 1 1 2 2 3 3 4 7 7 6 6 6 5 5 5 5 6 6 6 5 5 6 6 6 6 5
1 1 1 2 1 1 1 2 2 2 1 1 1 1 2 3 4 3 5 8 7 7 7 6 6 6 6 6 6 6 6 6 6 6 6 6 6 6
1 1 1 2 1 1 1 1 1 2 2 0 0 1 2 3 3 3 3 3 4 8 8 8 7 7 7 6 6 6 6 6 6 6 6 7 7 7
1 1 1 1 1 1 0 0 0 1 2 2 1 1 1 3 3 3 3 4 4 7 8 8 7 7 7 7 7 6 6 6 6 6 6 6 6 7
1 1 1 1 2 1 0 0 1 1 2 3 2 1 1 2 3 3 4 3 4 5 7 7 7 8 8 8 8 8 7 7 6 6 6 6 5 5
1 1 2 2 2 1 1 1 1 2 2 3 3 2 2 2 3 3 3 2 2 3 4 5 7 7 8 8 8 8 7 7 6 6 5 5 5 5
2 2 3 4 4 2 2 2 1 1 2 2 2 2 2 2 2 2 3 3 2 2 3 2 3 3 4 6 7 7 7 6 6 6 5 5 5 5
1 2 3 4 4 5 5 4 2 2 2 2 2 3 3 2 2 3 3 3 2 2 2 2 2 3 2 2 5 7 6 6 5 5 5 4 4 4
1 1 1 3 3 3 3 4 3 3 2 2 2 2 3 3 3 4 3 3 2 3 2 2 2 2 2 4 8 7 7 6 5 5 4 4 3 3
2 2 2 3 3 2 2 3 3 3 2 2 2 2 2 2 3 3 4 3 3 2 2 2 2 2 2 3 8 8 7 6 5 5 5 4 3 3
2 3 2 3 3 2 1 2 3 2 4 5 4 4 5 5 4 3 4 3 2 2 1 2 2 2 2 2 5 8 7 7 6 6 5 5 5 4
3 4 5 3 2 2 0 1 2 2 3 3 3 3 4 4 4 3 3 3 2 2 2 2 2 2 2 2 3 4 5 6 7 7 7 7 6 4
2 3 3 4 3 2 1 0 1 1 2 2 2 2 2 2 2 2 1 2 2 1 3 3 2 2 2 2 3 4 4 4 5 5 7 8 8 7
1 2 3 4 3 1 0 1 1 1 2 2 2 2 2 2 2 2 1 1 1 2 3 3 2 3 3 2 3 4 5 4 4 4 5 7 8 10
2 4 3 4 3 2 3 3 2 2 2 2 2 2 2 3 3 2 2 2 1 1 2 2 2 2 2 2 3 4 4 5 5 5 5 5 5 5
2 3 3 2 3 1 2 3 2 1 1 1 1 2 2 3 3 2 2 2 2 2 2 3 2 2 2 2 2 3 3 4 4 4 4 4 5 5
2 3 3 3 2 2 2 2 1 1 1 1 1 1 2 2 2 2 2 3 3 3 3 3 3 2 3 2 2 2 3 3 3 4 3 4 4 5
1 3 3 3 3 2 2 2 2 1 1 1 1 2 2 2 2 2 2 2 2 2 3 3 3 2 2 3 4 3 3 3 3 3 3 3 4 4
2 2 2 2 2 2 2 2 2 2 1 1 1 2 2 2 2 2 2 2 3 2 2 3 3 3 4 4 4 6 4 3 2 3 3 4 4 4
3 2 2 1 1 1 1 1 1 1 1 2 1 1 2 2 2 2 2 2 2 2 3 3 3 3 4 4 3 4 7 5 3 4 4 3 3 3
3 3 2 1 1 1 1 1 1 1 1 1 1 1 1 1 2 2 2 3 3 3 3 3 4 5 3 2 3 3 4 7 6 4 3 3 3 3
2 2 1 1 1 1 1 1 1 1 1 1 1 1 1 2 2 3 2 3 3 3 3 2 2 3 3 4 4 4 3 4 6 8 7 6 4 4
1 1 0 0 0 0 1 1 2 1 1 1 1 1 2 2 2 2 2 2 2 3 3 2 2 2 3 4 4 4 5 4 4 5 5 9 10 11
Wind_Direction
262 259 266 263 226 214 213 201 197 212 233 198 136 88 92 92 97 98 94 101 110 113 116 122 126 129 132 132 131 131 128 127 130 136 138 140 143 148
252 267 283 306 295 232 224 226 199 193 208 174 116 120 111 104 103 101 99 101 105 111 109 110 114 115 121 126 126 124 122 124 130 135 138 138 135 135
299 289 263 285 291 266 236 228 206 179 187 197 91 119 112 114 110 101 101 96 100 109 112 113 111 111 110 114 117 117 119 122 127 132 136 137 138 139
308 314 301 287 295 289 284 257 190 154 159 168 160 135 125 137 128 119 110 101 98 105 113 114 113 112 110 105 102 101 103 108 115 124 129 132 139 139
305 314 339 360 7 13 15 87 115 124 129 152 163 144 140 140 119 105 97 100 110 110 110 110 112 113 111 107 103 98 96 97 98 102 108 115 122 130
38 49 53 49 34 359 34 75 99 117 140 147 142 147 140 139 133 133 118 107 107 117 105 111 118 117 113 111 110 107 104 104 106 109 111 112 115 125
89 79 77 77 66 55 58 75 103 125 145 141 146 146 147 156 158 154 139 134 107 120 115 112 117 110 116 118 115 115 112 113 115 116 116 118 119 125
106 110 122 102 93 91 92 94 115 149 155 159 162 165 166 163 151 154 145 147 148 154 140 135 134 128 129 126 132 132 129 126 126 128 131 132 132 135
93 81 70 79 89 97 115 118 97 104 138 155 164 173 165 163 167 165 159 157 150 163 149 139 137 136 154 147 148 151 151 148 147 149 150 152 159 166
90 96 96 84 55 55 109 106 87 71 96 127 134 141 135 148 165 156 143 126 120 130 140 144 159 157 142 140 162 166 167 168 171 173 173 175 184 195
110 80 82 98 58 33 108 124 115 97 82 86 88 115 124 137 146 137 146 152 151 163 164 150 159 150 138 150 173 181 183 185 189 192 197 200 208 212
120 102 75 84 83 38 355 147 141 125 111 106 102 122 139 153 167 170 168 168 156 164 171 164 172 163 160 168 173 184 198 205 207 212 217 221 219 215
159 134 113 109 96 65 26 57 141 153 149 148 141 140 141 147 165 170 171 175 170 178 172 170 183 184 169 167 180 190 192 196 203 217 222 225 224 215
105 112 130 142 135 137 149 130 119 160 183 168 156 152 155 158 162 162 156 141 145 170 173 172 181 180 181 181 189 184 193 200 198 204 205 213 225 227
62 91 127 162 175 191 188 196 201 227 205 181 169 163 157 157 156 154 152 149 149 181 170 190 203 194 205 209 194 181 189 201 200 203 204 201 208 211
141 133 159 198 241 227 180 211 225 235 218 186 169 159 152 157 171 173 180 185 189 205 202 200 211 215 232 243 215 200 192 193 196 202 198 203 208 210
163 176 193 192 201 198 192 203 221 205 235 236 185 179 172 175 184 187 189 193 202 200 194 205 216 222 227 235 252 229 208 205 198 193 197 213 219 214
183 212 206 206 206 205 204 200 197 209 225 227 208 205 204 196 193 194 193 204 214 208 194 191 191 204 238 249 228 236 229 218 212 196 195 213 230 224
213 227 221 225 224 218 211 210 207 201 205 213 215 211 210 211 198 199 207 220 220 213 204 193 194 209 231 243 235 215 223 227 210 207 211 220 232 230
221 221 222 209 212 234 240 243 240 196 197 218 220 216 210 214 220 220 215 223 232 230 221 210 206 214 235 250 246 225 214 217 216 219 223 229 238 232
214 222 221 213 213 218 247 248 248 244 229 222 223 220 218 227 237 241 232 231 242 245 240 229 219 214 225 244 261 247 216 212 214 212 217 230 238 233
231 227 223 210 196 186 219 252 249 235 224 228 231 222 231 237 242 245 242 236 237 247 255 243 213 215 225 239 254 251 236 210 225 237 240 232 225 231
265 245 231 259 226 207 233 257 261 256 242 251 247 245 244 242 247 247 250 257 266 264 264 256 236 236 240 240 252 252 243 225 211 215 236 241 238 243